This is the latest recevied weather packets stored in our database for station/object KV4OP. If no packets are shown the sender has not sent any weather packets the latest 10 day(s).
| Time | Temp. | Humidity | Pressure | Rain* | Wind** | Luminosity | Snow |
|---|---|---|---|---|---|---|---|
| 1788209732 | 26.11° C | 88% | 1017.1 hPa | 0.51 mm | - | - | - |
| 1788209432 | 26.11° C | 88% | 1017.1 hPa | 0.51 mm | - | - | - |
| 1788209132 | 26.11° C | 88% | 1017.2 hPa | 0.51 mm | - | - | - |
| 1788208841 | 26.11° C | 87% | 1017.2 hPa | 0.51 mm | - | - | - |
| 1788208532 | 26.11° C | 88% | 1017.1 hPa | 0.76 mm | - | - | - |
| 1788208232 | 26.11° C | 88% | 1017.2 hPa | 0.76 mm | - | - | - |
| 1788207933 | 26.11° C | 88% | 1017.2 hPa | 0.76 mm | - | - | - |
| 1788207641 | 26.11° C | 88% | 1017.2 hPa | 0.76 mm | - | - | - |
| 1788207333 | 26.11° C | 88% | 1017.2 hPa | 0.51 mm | - | - | - |
| 1788207032 | 26.11° C | 87% | 1017.3 hPa | 0.51 mm | - | - | - |
| 1788206732 | 26.11° C | 87% | 1017.3 hPa | 0.25 mm | - | - | - |
| 1788206441 | 26.11° C | 87% | 1017.4 hPa | 0.25 mm | - | - | - |
| 1788206132 | 26.11° C | 87% | 1017.5 hPa | 0.51 mm | - | - | - |
| 1788205832 | 26.11° C | 87% | 1017.5 hPa | 0.51 mm | - | - | - |
| 1788205532 | 26.11° C | 86% | 1017.5 hPa | 0.51 mm | - | - | - |
| 1788205241 | 26.11° C | 86% | 1017.6 hPa | 0.51 mm | - | - | - |
| 1788204932 | 26.11° C | 86% | 1017.7 hPa | 0.25 mm | - | - | - |
| 1788204632 | 26.11° C | 86% | 1017.7 hPa | 0.51 mm | - | - | - |
| 1788204332 | 26.11° C | 86% | 1017.7 hPa | 0.76 mm | - | - | - |
| 1788204042 | 26.11° C | 86% | 1017.6 hPa | 0.76 mm | - | - | - |
| 1788203733 | 26.11° C | 86% | 1017.6 hPa | 1.02 mm | - | - | - |
| 1788203432 | 26.11° C | 86% | 1017.8 hPa | 1.02 mm | - | - | - |
| 1788203132 | 26.11° C | 86% | 1017.7 hPa | 1.27 mm | - | - | - |
| 1788202842 | 26.11° C | 86% | 1017.7 hPa | 2.03 mm | - | - | - |
| 1788202533 | 26.11° C | 86% | 1017.7 hPa | 2.54 mm | - | - | - |
* Rain latest hour (hover to see other rain measurements)
** Current wind speed in m/s (hover to see current wind gust speed)